GFSCGP_sfc_30mbdewp_258.txt.gz
Dewpoint
33 29 25 26 26 25 24 22 21 23 24 23 23 23 23 24 25 24 20 20 23 24 27 28 28 42 47 46 46 47 48 48 47 46 45 44 43 44 44 45 45 45 45 45
29 24 29 26 24 24 23 22 22 25 23 25 23 22 23 25 25 26 22 20 23 25 28 28 28 31 45 45 44 46 47 47 47 46 46 45 44 45 45 45 45 45 45 45
28 29 26 24 23 23 24 23 24 24 25 25 22 17 18 20 20 24 21 21 23 25 27 29 30 29 36 44 44 45 46 47 47 46 46 45 45 45 44 44 44 44 45 45
29 28 24 24 24 25 22 24 23 24 23 17 23 14 15 21 18 19 19 20 23 27 29 32 32 31 29 44 44 45 46 46 46 46 44 44 43 42 43 44 44 44 44 44
26 26 25 24 24 27 24 25 25 25 24 22 22 18 16 19 18 18 18 20 25 27 29 32 35 33 33 45 44 44 45 45 45 45 44 43 43 43 43 44 44 43 43 43
30 29 26 25 25 27 26 25 27 28 25 20 20 19 15 16 15 18 19 19 25 28 32 35 37 38 44 46 45 44 44 45 45 45 45 44 43 42 42 43 43 43 43 43
30 29 28 27 26 26 25 23 19 20 23 20 22 21 18 19 19 18 18 20 27 30 33 36 37 40 45 46 46 45 44 44 45 45 44 44 43 43 43 43 43 43 43 42
24 23 28 28 27 25 24 24 20 17 17 18 18 18 19 19 20 19 20 23 28 30 33 36 37 40 45 46 46 45 44 44 45 44 44 44 44 43 43 43 43 43 43 42
28 28 28 27 27 26 25 23 26 21 22 19 19 19 19 20 19 20 22 26 29 30 32 35 38 39 42 45 45 46 45 45 44 44 44 44 44 44 43 43 43 43 43 43
28 25 28 26 26 26 24 24 20 21 18 17 19 19 18 18 18 20 23 26 29 31 33 35 37 39 41 43 45 45 46 45 45 44 44 44 44 44 44 43 43 43 43 42
29 27 26 26 25 25 23 21 21 22 22 19 19 21 22 20 19 20 22 25 27 31 32 34 36 38 40 41 43 44 45 45 45 44 44 43 43 43 43 42 42 42 41 41
31 29 26 26 27 26 24 23 22 21 22 23 22 22 20 20 21 21 22 23 24 29 32 35 36 37 38 39 40 40 42 43 44 44 43 42 42 42 41 41 41 40 39 39
30 30 29 29 26 26 24 24 22 23 24 23 22 23 20 21 22 22 21 23 24 25 32 34 35 36 37 39 39 39 40 41 42 43 42 41 40 41 40 40 40 39 39 39
33 34 33 28 27 27 25 24 23 23 22 23 23 24 21 19 20 21 22 22 22 24 26 30 33 35 36 35 33 34 40 42 42 42 41 40 40 40 40 40 39 39 39 39
38 35 36 36 35 33 29 26 25 23 24 24 26 24 25 22 20 21 24 25 26 26 24 27 29 30 32 34 39 41 42 42 42 41 40 39 40 40 40 39 40 40 40 40
33 30 32 34 36 36 35 35 34 28 26 25 25 25 26 25 26 29 28 28 27 28 27 28 29 33 37 39 40 41 42 42 42 41 40 40 41 40 40 40 40 41 41 41
31 29 28 25 31 32 29 33 35 34 31 28 26 27 27 30 33 32 32 37 37 36 28 29 31 33 35 37 38 39 39 42 41 40 40 41 41 40 40 41 41 41 41 41
30 30 29 25 28 19 26 25 24 30 33 35 35 33 32 30 32 34 33 32 29 27 28 31 35 37 37 38 38 38 38 41 41 40 40 41 41 40 41 41 41 41 40 39
33 30 26 23 23 24 24 26 21 25 22 28 34 35 35 34 31 29 30 29 27 27 31 35 36 37 37 36 37 38 37 37 41 41 40 41 41 41 41 41 41 40 40 39
32 32 27 25 20 18 18 17 19 19 19 22 23 24 28 23 22 22 21 28 30 33 35 36 36 36 35 36 36 37 37 37 37 41 41 41 41 41 40 41 40 40 40 39
26 27 23 23 21 24 31 29 26 23 21 23 20 19 19 19 18 20 26 32 34 35 36 36 36 35 35 36 36 35 36 36 37 40 41 41 41 40 40 40 40 40 39 39
21 22 22 24 21 18 32 28 26 29 30 30 23 21 22 22 24 28 32 34 35 35 36 36 34 33 34 35 35 34 34 35 37 39 39 40 40 40 40 39 39 39 38 37
18 22 20 21 24 30 32 31 28 25 28 30 32 29 24 23 24 29 31 35 35 35 35 34 33 33 34 35 34 34 35 36 36 36 37 37 39 39 39 38 38 37 37 35
21 30 26 24 23 28 28 22 27 30 30 30 33 35 32 23 23 27 29 34 35 34 34 33 32 32 33 35 34 34 35 35 35 35 35 36 37 37 37 37 37 35 34 33
20 24 21 22 23 20 20 24 25 26 28 26 28 32 32 26 23 24 27 33 35 34 33 33 31 32 33 35 33 34 35 34 34 35 35 36 36 36 36 36 35 35 35 35
20 18 19 18 22 18 21 26 25 24 21 19 21 22 22 24 22 23 24 30 34 32 33 32 32 32 32 32 35 35 35 33 32 33 34 34 35 35 34 34 35 37 37 37

GFSCGP_sfc_30mbdewp_261.txt.gz
Dewpoint
32 26 23 24 29 27 25 22 21 22 24 24 23 24 24 25 25 24 24 22 20 23 26 28 28 38 48 50 48 49 48 48 47 46 45 44 43 44 44 45 45 45 45 45
29 24 28 30 24 23 23 21 20 24 24 25 24 23 23 23 24 25 25 23 20 24 27 28 27 42 46 48 47 48 48 47 47 46 46 45 44 44 44 45 45 45 45 45
27 27 26 24 23 23 23 22 22 23 25 25 22 17 16 19 19 20 25 23 22 23 25 27 28 28 44 46 46 47 47 47 47 46 45 45 45 45 44 44 44 44 44 44
30 28 25 24 23 24 21 25 24 24 23 19 23 15 17 17 19 19 22 22 21 23 26 28 30 31 29 44 45 46 47 47 47 46 45 44 43 42 43 43 44 43 44 44
26 27 25 24 24 26 24 25 25 25 23 22 21 18 17 19 17 18 19 21 21 24 27 29 32 33 31 37 44 45 46 47 47 46 45 44 43 43 43 43 43 43 43 43
30 29 26 26 26 27 27 25 27 27 25 20 20 19 18 17 16 16 19 20 20 24 28 31 35 36 35 42 44 44 45 46 46 46 45 44 43 42 42 42 42 42 43 43
30 29 28 26 25 26 25 24 20 18 20 18 22 20 19 19 18 18 18 19 20 25 28 33 35 37 42 44 44 44 44 44 45 45 45 44 43 43 43 42 42 42 42 42
23 19 28 28 26 25 25 25 20 17 17 18 22 20 21 22 21 21 21 20 21 26 30 33 35 37 42 45 45 44 44 44 45 45 44 44 44 44 43 43 43 43 43 42
25 25 29 27 28 26 24 24 25 21 21 20 20 20 20 21 20 20 20 21 22 27 30 33 36 37 42 45 46 45 44 44 44 44 44 44 44 44 43 43 43 43 43 43
26 22 28 27 26 26 25 24 21 22 19 19 19 19 20 19 20 20 20 22 25 29 30 33 36 38 40 44 45 46 46 45 45 44 44 44 44 44 44 43 43 43 43 43
29 28 25 26 26 26 23 22 22 23 22 19 19 21 22 22 21 21 20 23 26 29 31 32 35 38 40 42 44 44 45 45 45 45 44 44 44 44 44 43 43 43 43 42
31 28 26 25 27 27 24 23 22 22 22 22 21 22 23 22 21 22 21 22 27 29 31 33 35 37 39 40 41 43 43 44 44 45 44 44 43 43 43 42 42 42 41 41
31 30 28 28 27 26 25 24 23 23 24 23 23 25 21 21 21 22 21 23 24 26 30 33 35 36 37 38 39 40 40 41 42 42 42 42 42 41 41 41 41 40 40 40
38 33 31 27 26 27 26 26 25 24 23 24 26 27 28 22 22 21 22 23 23 24 25 30 33 35 36 38 39 39 39 40 41 42 42 41 40 40 41 41 41 40 39 39
36 34 34 33 34 34 31 28 28 25 25 26 28 29 29 26 25 23 22 22 22 22 24 26 29 32 34 34 35 36 38 41 42 41 40 40 39 40 41 40 40 39 39 39
33 30 30 29 33 34 33 36 36 33 29 28 29 28 31 28 26 24 23 25 26 27 28 30 28 28 32 34 36 40 41 42 42 41 40 40 40 40 40 40 40 40 40 40
30 29 28 23 30 29 23 27 31 35 36 36 32 34 36 36 36 36 31 30 31 37 38 35 36 34 35 38 40 41 41 41 42 40 40 40 40 40 40 40 40 40 40 41
29 29 28 24 26 18 23 25 24 25 30 33 35 37 37 36 34 35 34 33 34 34 36 38 32 33 36 38 38 38 38 41 41 40 40 40 40 40 40 40 40 41 41 41
33 29 24 22 22 23 24 24 21 27 22 26 23 24 27 35 34 33 33 35 35 36 37 33 35 36 37 37 38 37 36 37 41 40 40 40 41 40 41 41 41 41 41 40
32 32 26 24 19 17 23 29 30 24 22 29 29 27 22 23 24 25 26 27 29 30 33 35 37 37 36 36 37 37 36 36 38 39 40 40 41 41 41 41 41 41 40 40
26 27 23 23 20 23 29 30 30 23 21 30 29 30 29 28 26 22 24 27 32 34 35 36 36 35 34 36 37 35 36 35 36 38 40 40 41 41 41 41 41 40 39 39
18 15 17 20 19 17 32 26 21 24 30 29 29 29 31 33 33 28 29 33 34 35 36 36 35 34 35 35 35 34 34 36 36 38 38 39 40 40 40 40 40 40 39 38
14 21 18 19 14 24 32 28 28 31 29 29 30 29 32 33 33 32 28 34 35 35 35 35 33 33 35 34 34 34 35 36 36 37 37 38 39 39 40 39 38 38 38 36
17 27 20 21 20 22 19 23 22 24 28 30 30 28 31 33 34 34 29 33 35 35 34 33 33 33 33 34 34 35 36 36 36 35 36 36 37 37 38 38 37 36 35 34
18 21 21 19 16 16 18 23 24 27 26 24 21 23 25 25 27 31 30 30 35 34 34 32 32 32 33 33 33 34 35 35 35 35 35 35 35 35 36 36 36 35 35 35
16 13 13 8 9 14 21 26 29 26 26 25 27 28 26 24 23 23 24 27 34 34 34 32 31 32 34 33 33 35 34 32 32 31 33 35 35 35 35 34 34 37 36 36

GFSCGP_sfc_30mbdewp_264.txt.gz
Dewpoint
32 24 22 23 29 29 29 25 22 22 24 24 23 23 23 25 25 25 24 23 22 23 23 25 28 32 46 53 52 51 50 48 47 46 44 44 44 44 44 44 45 45 45 45
29 24 25 28 27 25 23 22 21 23 25 25 24 23 23 23 23 24 24 25 24 22 23 26 27 39 45 50 51 49 49 48 47 46 45 44 44 44 44 44 44 45 44 45
25 25 29 26 24 23 23 22 21 22 25 25 22 18 18 18 20 21 23 25 26 24 22 26 28 30 43 47 49 49 49 48 47 46 45 44 44 44 44 44 43 44 44 44
29 29 25 24 24 24 22 25 24 24 22 19 23 18 20 20 19 19 19 21 23 24 24 27 28 28 35 45 47 48 48 47 47 46 45 44 43 42 43 43 43 43 44 43
26 27 25 24 25 24 24 26 25 25 23 22 22 20 20 20 19 19 19 20 22 23 24 26 28 30 30 37 45 46 47 47 47 46 46 44 43 43 43 43 43 43 43 43
30 29 26 26 27 27 28 26 27 27 24 20 21 20 19 19 19 18 18 20 21 22 24 27 29 33 33 32 42 45 46 46 47 46 46 45 44 43 42 42 42 42 42 42
29 30 28 26 25 26 25 24 21 18 19 18 22 20 19 21 21 18 17 19 20 22 24 27 31 34 36 37 41 44 45 45 46 46 45 45 44 43 43 42 42 41 41 42
22 19 28 27 26 25 24 24 20 16 16 18 22 21 20 23 23 23 23 22 21 21 24 27 31 35 37 41 43 44 44 45 45 45 45 45 44 44 43 43 42 42 42 42
22 23 29 28 28 26 24 24 25 22 21 20 20 21 22 22 22 22 21 21 21 22 24 28 32 35 37 43 45 44 44 44 44 45 45 44 44 44 44 43 43 43 43 43
24 20 28 27 26 25 25 25 22 23 19 17 19 20 20 21 21 22 21 21 22 24 26 29 33 36 38 43 46 45 45 44 44 44 44 44 44 44 44 43 43 43 43 43
28 27 25 26 26 25 24 23 22 23 23 19 17 18 22 23 22 21 22 22 23 24 27 29 32 36 38 42 45 45 45 45 45 45 44 44 44 44 43 43 43 43 43 43
31 28 25 24 27 27 25 24 23 22 22 22 21 21 24 22 22 22 22 22 24 26 28 30 32 35 38 40 43 44 45 45 45 45 44 44 44 43 43 43 43 43 43 42
32 29 26 27 28 27 25 25 24 24 24 23 22 22 21 21 22 23 23 23 23 25 29 31 33 34 36 39 40 42 43 43 43 43 43 42 42 41 42 42 42 42 42 41
38 33 29 21 23 27 26 26 25 24 24 24 24 25 26 26 27 28 25 23 23 24 26 30 32 34 36 37 39 39 40 40 40 41 41 41 41 40 41 41 41 41 40 40
36 32 32 32 33 34 34 33 30 26 25 25 26 27 28 31 29 26 24 24 23 23 24 26 29 32 35 36 37 38 38 38 41 41 41 40 40 40 40 41 40 40 39 39
32 31 31 30 31 32 31 32 33 32 35 35 34 32 34 34 36 38 38 36 29 27 26 25 26 30 31 33 35 37 38 40 41 41 40 40 40 40 40 40 39 39 39 40
29 29 27 23 30 29 22 24 25 26 31 32 32 31 26 28 30 36 38 39 34 32 30 33 35 33 35 35 37 39 41 42 41 41 40 40 40 40 40 40 40 39 40 40
29 28 28 23 25 17 22 26 25 25 27 27 27 28 28 28 28 25 36 35 36 33 33 35 37 37 37 38 39 40 40 41 41 40 40 40 40 40 40 40 40 40 40 40
31 28 23 21 21 23 22 26 27 26 24 26 24 26 28 31 28 27 27 30 27 27 35 36 37 35 37 38 38 38 37 38 40 40 40 40 40 40 40 40 40 41 41 40
31 30 26 23 18 15 24 28 24 31 22 24 26 25 27 29 24 26 31 31 30 31 32 34 36 37 37 37 37 36 35 36 38 40 40 40 40 40 40 40 41 41 41 40
26 26 22 22 19 23 29 29 22 15 19 23 27 27 28 27 28 30 33 32 31 34 35 37 36 36 36 36 37 35 36 36 37 38 39 40 40 40 40 41 41 41 41 40
16 14 14 15 16 13 32 26 18 21 26 27 28 28 28 29 30 31 33 33 32 34 36 36 35 35 35 36 35 34 34 35 36 38 38 38 39 40 41 41 41 40 39 38
14 16 16 19 15 24 31 25 24 28 27 27 29 29 30 29 29 32 33 33 32 34 36 35 34 34 35 35 34 33 35 36 36 37 37 38 39 40 40 39 39 38 38 37
19 24 18 14 12 18 16 15 19 23 26 27 27 25 23 25 25 25 27 32 32 34 35 34 33 33 33 34 34 35 35 36 36 35 36 37 37 37 38 38 38 37 36 35
16 22 19 21 16 11 8 14 22 28 27 27 25 25 27 27 28 27 26 24 26 33 35 34 33 33 33 33 34 35 35 36 35 35 35 35 35 36 35 36 36 36 36 35
18 15 11 7 8 11 13 20 27 26 26 20 18 20 23 28 27 29 28 28 24 30 35 34 33 33 33 33 34 34 32 32 32 33 34 34 35 35 34 34 34 36 37 36

GFSCGP_sfc_30mbdewp_267.txt.gz
Dewpoint
31 24 20 22 27 25 26 25 23 22 24 23 22 23 23 25 25 25 25 24 24 21 23 25 25 28 35 49 53 53 52 51 49 47 46 45 45 46 46 46 45 45 45 46
28 23 25 27 27 28 26 24 23 22 25 24 24 23 24 24 24 25 24 25 25 25 24 24 26 32 40 48 53 52 51 50 48 47 46 45 45 45 45 45 45 45 45 45
23 24 29 26 25 25 24 23 22 21 24 25 22 20 19 19 21 22 23 25 26 26 25 24 27 33 40 46 51 52 51 49 48 47 45 45 45 45 44 44 44 44 45 45
27 28 26 25 25 24 23 24 24 24 23 19 23 15 20 21 21 21 21 21 22 24 26 26 27 28 39 43 49 51 50 49 48 47 45 45 44 43 43 43 44 44 44 44
23 28 26 24 25 25 24 26 25 24 23 22 22 20 19 20 20 20 21 22 22 23 25 25 27 29 29 42 46 49 49 48 48 47 46 45 44 44 43 44 43 43 43 43
30 29 26 26 27 27 28 26 27 26 24 21 22 20 19 19 19 20 18 18 21 22 24 26 28 30 31 32 44 47 48 48 47 47 46 45 45 44 43 43 43 43 43 43
29 30 27 27 26 26 25 24 21 18 20 19 22 20 20 21 21 21 20 20 21 22 23 25 27 30 33 34 35 44 47 47 47 47 46 46 45 45 44 43 43 42 42 42
22 18 28 27 26 25 24 25 20 15 15 17 22 20 20 23 23 24 24 23 23 22 23 24 27 30 34 36 38 41 45 46 46 46 46 46 45 45 44 43 43 43 42 42
22 21 29 27 27 26 25 24 25 22 21 20 20 21 22 23 23 23 23 22 22 22 23 24 27 31 34 37 40 41 44 45 46 46 46 45 45 44 44 44 44 43 43 43
24 19 28 27 27 25 25 26 23 23 18 15 18 20 19 21 22 23 23 23 23 24 24 25 27 31 35 38 43 44 44 44 45 45 45 45 45 45 44 44 43 43 43 43
27 25 25 26 26 25 24 24 23 24 23 19 16 15 22 22 24 22 23 23 23 24 25 27 29 32 36 39 44 45 45 44 44 44 45 44 44 44 44 44 43 43 43 43
30 27 24 23 27 28 25 24 23 21 20 22 21 19 25 22 22 23 24 25 25 25 27 29 30 32 36 38 43 45 45 45 45 45 45 44 44 44 43 43 43 43 43 43
31 28 25 25 28 27 26 25 24 24 25 22 21 21 22 25 26 28 27 26 27 25 24 27 31 33 35 38 40 44 45 45 45 45 44 44 44 43 42 42 42 43 43 42
38 32 25 17 20 26 25 26 25 24 24 24 24 24 26 28 32 29 31 36 35 32 28 25 28 32 35 37 39 41 42 43 43 43 43 42 41 41 41 42 42 42 42 41
35 32 33 32 33 33 32 31 29 27 25 25 26 26 29 29 28 31 35 37 37 35 32 32 30 29 33 36 38 39 40 40 41 41 41 41 41 41 41 41 41 41 40 40
33 30 30 29 31 31 31 31 31 33 34 35 34 33 30 29 28 27 26 29 28 31 34 33 27 27 32 35 36 38 38 39 40 40 40 41 40 40 40 41 40 40 39 40
30 29 26 22 28 26 21 23 25 28 27 29 27 26 29 24 25 27 28 30 30 30 29 27 31 32 30 33 35 36 38 40 41 41 41 41 40 40 40 40 40 39 39 40
28 28 27 22 25 16 25 28 27 26 26 27 27 24 22 25 28 28 27 30 31 31 31 31 30 33 37 36 36 39 41 42 42 42 41 40 40 40 40 40 40 40 40 40
31 28 23 20 21 24 24 23 21 26 24 27 22 22 24 27 27 25 24 30 32 32 32 33 34 35 36 38 40 40 41 41 41 40 40 40 40 40 40 40 40 40 40 40
30 30 25 22 18 15 22 28 29 30 21 24 24 23 25 27 22 23 29 30 32 33 33 35 36 37 37 38 39 39 38 39 40 40 40 40 40 40 40 40 40 41 41 40
25 25 21 20 19 22 29 28 30 11 12 19 25 26 27 26 27 29 30 30 33 34 34 37 36 36 36 37 37 36 36 37 39 39 40 40 40 40 40 40 41 41 41 41
20 19 18 19 16 11 31 26 15 16 19 25 25 27 28 29 30 29 28 31 31 31 34 36 35 35 35 37 36 35 35 37 37 38 39 39 40 40 41 41 41 41 40 39
18 15 11 15 14 25 30 24 22 20 26 25 27 27 28 26 24 26 27 27 27 28 33 35 35 34 35 35 35 34 35 36 37 37 37 38 39 40 40 40 40 39 39 38
19 24 21 17 14 19 16 14 16 19 22 27 27 25 24 25 27 26 27 28 28 28 27 34 34 34 34 34 34 35 36 36 36 36 37 38 38 37 38 39 39 37 37 36
14 23 19 19 17 10 7 11 15 26 27 26 20 19 21 23 23 25 25 25 27 29 27 31 35 34 33 34 34 35 35 35 35 35 36 36 36 36 36 36 36 35 36 36
19 16 14 10 12 10 11 23 24 21 18 17 16 17 17 17 19 19 19 22 25 28 29 29 34 34 33 32 34 35 36 35 34 34 34 35 35 35 35 34 34 36 36 36

GFSCGP_sfc_30mbdewp_270.txt.gz
Dewpoint
33 25 23 21 25 26 26 25 24 24 25 25 24 24 24 24 26 26 25 25 24 24 25 26 26 27 28 30 41 50 56 57 54 52 51 51 50 49 48 48 47 46 45 45
29 24 25 27 28 28 27 25 24 26 25 25 24 24 25 25 25 25 26 25 25 26 27 26 27 29 30 32 44 50 55 55 53 52 50 49 48 48 47 47 46 46 45 45
22 25 29 27 27 25 25 24 24 23 25 26 24 21 23 23 22 23 24 25 25 26 27 28 28 29 33 37 45 49 54 54 53 51 49 47 47 46 46 46 46 46 45 45
26 28 28 27 26 26 24 25 24 25 24 24 24 19 20 22 22 23 24 25 26 25 27 28 28 29 36 39 47 50 53 54 53 50 48 47 45 44 45 45 45 45 45 44
25 29 27 26 26 26 27 27 27 26 26 25 24 23 18 22 20 21 21 24 22 24 26 27 29 30 34 40 47 51 53 54 52 50 49 48 47 46 45 45 45 45 45 45
31 30 28 28 28 27 28 27 28 29 27 25 23 21 18 19 19 22 23 21 23 24 25 27 28 31 32 40 46 49 52 53 52 50 49 48 47 46 45 45 44 44 45 45
30 30 28 28 27 28 27 25 27 26 25 23 22 22 20 23 23 24 23 24 24 25 25 27 29 31 32 35 41 47 49 51 51 50 49 48 47 47 46 45 45 44 44 44
26 21 28 28 27 26 26 26 27 20 19 19 22 20 19 24 25 25 26 26 25 26 25 26 29 30 32 35 37 41 46 49 50 50 49 48 48 47 46 46 45 44 44 44
24 23 29 27 27 27 26 25 27 24 22 21 19 20 22 24 24 26 26 26 26 27 27 26 28 30 33 35 38 38 40 45 48 49 48 47 47 47 46 46 45 45 45 44
24 20 28 27 27 26 26 26 25 25 19 11 14 18 19 22 24 25 26 28 28 28 28 28 28 29 33 36 39 41 40 41 46 48 48 47 46 46 46 45 45 45 45 44
26 24 26 27 26 26 25 24 24 26 26 21 10 9 23 24 24 27 28 28 29 29 29 29 30 31 32 35 39 43 43 43 44 46 47 46 46 46 46 45 45 45 44 44
29 27 24 23 28 28 26 24 24 20 20 24 22 18 24 24 31 31 32 36 37 37 36 33 31 32 32 35 38 42 45 45 45 46 46 46 45 45 45 45 44 44 44 44
30 27 23 25 28 28 26 26 25 24 24 21 20 17 23 30 30 31 33 32 34 37 37 37 36 33 32 33 37 40 45 46 46 46 45 45 45 45 44 44 44 44 44 44
38 31 22 13 14 25 25 26 25 25 23 23 22 21 23 29 29 29 28 29 29 30 30 30 32 34 33 33 35 39 43 46 46 46 46 45 45 44 44 43 43 44 44 43
37 32 31 31 32 31 31 29 27 25 26 24 22 23 29 27 24 25 28 27 28 28 29 29 29 28 31 30 36 39 42 44 44 44 44 44 43 43 42 42 43 43 43 42
34 31 31 29 30 30 29 30 31 32 31 31 30 30 28 23 21 21 28 26 27 29 30 30 31 30 30 33 35 39 41 42 42 42 42 42 42 41 42 42 43 42 41 41
30 30 29 26 28 28 24 25 25 26 28 29 29 26 21 15 21 23 28 26 28 29 30 31 32 32 32 32 35 37 39 41 41 41 42 41 41 42 42 42 41 41 40 40
29 29 28 23 26 17 25 29 26 26 26 27 23 17 13 19 24 26 27 28 27 28 31 31 33 34 35 35 36 37 39 40 41 41 41 42 42 41 42 41 40 40 40 40
31 29 24 21 22 24 25 23 24 26 24 26 16 13 19 24 26 18 27 28 28 29 32 33 33 36 36 36 37 38 40 41 42 42 43 43 42 41 41 40 40 40 40 40
29 29 26 23 18 16 22 25 26 28 22 18 19 19 24 24 16 14 26 28 27 29 30 32 34 36 36 37 38 40 41 42 43 42 42 42 41 41 40 40 41 41 41 40
25 25 21 20 19 23 29 24 28 14 14 22 19 23 21 19 21 24 26 26 28 28 29 29 31 33 35 37 38 38 39 41 41 41 41 41 41 41 41 41 41 41 41 41
20 19 18 20 18 13 32 26 14 12 14 17 23 23 24 23 23 24 25 27 27 26 27 28 29 31 35 36 37 36 36 37 39 40 41 41 41 40 41 41 41 42 41 41
18 18 14 16 14 28 30 20 16 18 17 15 20 26 26 24 24 25 24 23 22 24 24 28 28 29 33 35 36 35 35 36 37 38 38 39 40 40 41 40 40 40 40 39
18 23 19 18 20 21 25 20 14 15 18 27 27 24 22 21 21 21 20 20 20 20 22 24 25 27 31 34 35 35 36 36 37 37 37 38 38 38 39 40 40 39 38 37
17 20 20 19 17 16 10 9 17 24 24 21 19 18 18 18 17 17 16 16 17 18 20 22 24 24 26 32 35 36 37 37 36 36 37 37 36 36 37 37 37 37 37 37
19 16 13 13 16 10 9 21 20 18 18 17 16 17 16 15 15 15 15 18 20 21 21 19 20 23 26 31 35 34 34 35 35 35 35 35 35 36 35 35 35 36 36 36